Home > Weather > Friesoythe > Past weeks

Flag for Germany Weather for the Past 2 Weeks in Friesoythe, Lower Saxony, Germany

Now
30 °F

Chilly.


Feels Like: 24 °F
Forecast: 34 / 36 °F
Wind: 6 mph from Northeast

Location: Meppen-Mil

Current Time: Feb 13, 2016 at 7:59:02 AM

Latest Report: Feb 13, 2016 at 7:20 AM


Visibility: 0 mi

Pressure: 29.39 "Hg

Humidity: 93%

Dew point: 28 °F

Location of FriesoytheLocation

Historic Weather in Friesoythe — Graph

°F

Friesoythe Temperature Yesterday

Maximum temperature yesterday: 41 °F (at 1:20 PM)
Minimum temperature yesterday: 28 °F (at 5:20 AM)
Average temperature yesterday: 34 °F

High & Low Weather Summary for the Past Weeks

 TemperatureHumidityPressure
High54 °F (Feb 1, 3:20 PM)100% (Feb 1, 12:20 AM)30.24 "Hg (Feb 1, 12:20 AM)
Low28 °F (Feb 12, 5:20 AM)54% (Feb 2, 12:20 PM)28.82 "Hg (Feb 9, 6:20 PM)
Average43 °F81%29.66 "Hg
* Reported Jan 29 6:20 AM — Feb 13 6:20 AM, Friesoythe, Weather by CustomWeather, © 2016

Note: Actual official high and low records may vary slightly from our data, if they occured in-between our weather recording intervals... More about our weather records

Advertising

Friesoythe Weather History for the Previous 24 Hours

 ConditionsComfort  
Time TempWeatherWind HumidityBarometerVisibility
6:20 AM
Sat, Feb 13
30 °FChilly.3 mph93%29.39 "Hg0 mi
5:20 AM30 °FChilly.5 mph93%29.42 "Hg0 mi
4:20 AM28 °FChilly.5 mph93%29.42 "Hg1 mi
3:20 AM28 °FChilly.5 mph93%29.45 "Hg1 mi
2:20 AM28 °FChilly.3 mph93%29.45 "Hg1 mi
1:20 AM30 °FChilly.3 mph93%29.47 "Hg0 mi
12:20 AM28 °FChilly.2 mph100%29.47 "Hg0 mi
11:20 PM
Fri, Feb 12
32 °FChilly.2 mph93%29.47 "Hg0 mi
10:20 PM32 °FChilly.3 mph93%29.47 "Hg1 mi
9:20 PM32 °FChilly.2 mph93%29.47 "Hg0 mi
8:20 PM32 °FChilly.2 mph87%29.47 "Hg1 mi
7:20 PM36 °FChilly.2 mph87%29.47 "Hg4 mi
6:20 PM37 °FChilly.3 mph81%29.47 "Hg6 mi
5:20 PM39 °FChilly.2 mph81%29.47 "HgN/A
4:20 PM41 °FQuite cool.3 mph76%29.47 "HgN/A
3:20 PM41 °FQuite cool.2 mph76%29.50 "HgN/A
2:20 PM41 °FQuite cool.2 mph76%29.50 "HgN/A
1:20 PM41 °FBroken clouds.2 mph76%29.53 "HgN/A
12:20 PM39 °FPartly sunny.3 mph93%29.53 "Hg5 mi
11:20 AM37 °FFog.2 mph100%29.56 "Hg2 mi
10:20 AM36 °FFog.1 mph93%29.56 "Hg1 mi
9:20 AM32 °FFog.2 mph100%29.59 "Hg1 mi
8:48 AM30 °FIce fog.1 mph100%29.59 "Hg0 mi
8:20 AM32 °FIce fog.1 mph100%29.59 "Hg1 mi
7:20 AM30 °FIce fog.2 mph100%29.59 "Hg1 mi
Weather by CustomWeather, © 2016

See weather overviewHow to use our weather pages